FENGYUN 1C DEB, 29977

Orbit data source: Space-Track

FENGYUN 1C DEB, 29977 is space debris in SSO originally from a launch on Mon, 10 May 1999 UTC launched from the Taiyaun Space Center, China (TSC). Fengyun 1C debris stems from the Chinese weather satellite Fengyun-1C, which was intentionally destroyed by a Chinese anti-satellite missile in 2007. This event dramatically increased the amount of space debris, with thousands of trackable fragments posing hazards to satellites and human spaceflight. The Fengyun 1C debris cloud has become a focal point in discussions about space sustainability and the need for international regulations to prevent the creation of new debris.

Loading next visibility...
Identifier
29977, 1999-025LB
Orbit
SSO
Country
Flag of CNCN / PRC
Related business
Manufacturer
Unknown
Mission
Spacecraft
Bus & Motor
Unknown
Mass
Unknown
Launch date (UTC)
1999-05-10 (27 years ago)
Launch vehicle
Unknown
Launch site
Taiyaun Space Center, China (TSC)
Object type
Payload
Rocket body
Debris
Shape & HBR
Unknown shape, 0.1 m
Radar Cross Section
Small (<0.1 m²)

Expand to show TLE details & history
Last TLE update: 4 days ago

TLE from 4 days ago
0 FENGYUN 1C DEB
1 29977U 99025LB  26250.86185589  .00001307  00000-0  76554-3 0  9995
2 29977  98.3761  98.0436 0126315 212.0246 160.6419 14.05922658  1320
Epoch: 2026-09-07T20:41Z
TLE epoch observation values (Epoch: 2026-09-07T20:41:04.348Z)
Latitude
12.95991°
Longitude
158.9072°
Altitude
962.073 km
Speed
7.328 km/s
True Right ascension
06h 24m 26s
True Declination
12° 53' 13"
Sunlit
Object was in daylight at epoch
Visualization orbit readout
Latitude
Unknown
Longitude
Unknown
Altitude
Unknown
Speed
Unknown
Apparent Right ascension
Unknown
Apparent Declination
Unknown
Sunlit
N/A
Visualization observer readout
Local Sidereal Time
06:48:32
Azimuth
Unknown
Elevation
Unknown
Doppler factor
Unknown
Orbital elements
Apogee altitude
962.081 km
Perigee altitude
778.958 km
Semi-major axis
7,248.656 km
Eccentricity
0.01263
Inclination
98.3761°
RAAN
98.0436°
Arg. of periapsis
212.0246°
True anomaly
161.11464°
Mean anomaly
160.6419°
Eccentric anomaly
160.87897°
Mean motion
3.51687 °/min
Orbital period
102.36 mins
BSTAR
0.00076554
Loading maneuver chart data...
Computing Atmospheric mass density...
Loading historical data...
Loading historical data...
Loading historical data...
Loading historical data...
Loading historical data...
Loading historical data...
Loading historical data...

Documentation

Showing up to 5 results
|